Location: Palomar Mountain Lodge
(33.3110°N, 116.8495°W)
Time: 06:40:23
(UTC-07:00)

USA 229 - Pass Details

Date: 12 July 2018
Orbit: 1030 x 1183 km, 63.4° (Epoch: 11 July)

Event Time Altitude Azimuth Distance (km) Brightness Sun altitude
Rises 22:32:40 0° 330° (NNW) 3,971 8.0 -25.5°
Reaches altitude 10° 22:35:20 10° 332° (NNW) 3,029 7.1 -25.8°
Maximum altitude 22:42:37 79° 59° (ENE) 1,185 3.8 -26.7°
Enters shadow 22:44:15 58° 132° (SE) 1,344 3.8 -26.9°
